Location: Bacea
(45.9500°N, 22.6667°E)
Time: 00:08:30
(UTC+00:00)

Cosmos 1953 - Pass Details

Date: 16 October 2021
Orbit: 537 x 557 km, 82.5° (Epoch: 26 November)

Event Time Altitude Azimuth Distance (km) Brightness Sun altitude
Rises 16:35:27 0° 171° (S) 2,720 5.8 -10.1°
Reaches altitude 10° 16:37:40 10° 164° (SSE) 1,833 4.8 -10.5°
Maximum altitude 16:41:30 43° 93° (E) 794 2.7 -11.2°
Drops below altitude 10° 16:45:22 10° 22° (NNE) 1,853 4.8 -11.9°
Sets 16:47:37 0° 16° (NNE) 2,754 5.7 -12.2°
